[[{"header":{"parameterUnit":"m.s-1","parameterCategory":1,"la1":30.2991,"la2":30.254,"lo1":-89.0895,"lo2":-89.0444,"dy":0.0017,"dx":0.0017,"nx":28,"ny":28,"refTime":"2024-12-11T03:00:00:Z","depth":0,"parameterNumber":2,"parameterNumberName":"U-component_of_WINDS"},"data":[0,0,0,0,0,0,0,0,0,0,0,0,0,0,0,0,0,0,0,0,0,0,0,0,0,0,0,0,0,0,0,0,0,0,0,0,0,0,0,0,0,0,0,0,0,0,0,0,0,0,0,0,0,0,0,0,0,0,4.1062,4.1063,0,4.1136,4.1137,4.1138,4.11,4.1098,4.1096,4.1094,4.1169,4.1173,4.1177,0,0,0,0,0,0,0,0,0,0,0,0,0,4.0887,4.089,4.1062,4.1063,4.1064,4.1136,4.1137,4.1138,4.11,4.1098,4.1096,4.1093,4.1168,4.1172,4.1177,0,0,0,0,0,0,0,0,0,0,0,0,0,4.0962,4.0892,4.1062,4.1054,4.1054,4.1136,4.1137,4.1138,4.1101,4.1098,4.1095,4.1092,4.1166,4.1172,4.1178,4.1271,0,0,4.1195,4.1197,0,0,0,0,0,0,0,0,4.0958,4.0969,4.1054,4.1054,4.1055,4.1106,4.1103,4.1183,4.1102,4.1083,4.1094,4.1091,4.115,4.1157,4.1177,4.1275,4.1278,4.1195,4.1199,4.1201,4.1203,0,0,0,0,0,0,0,4.0953,4.0965,4.1091,4.1055,4.1056,4.1046,4.1054,4.1118,4.1132,4.1084,4.1082,4.1091,4.115,4.1172,4.1179,4.1279,4.1195,4.12,4.1204,4.1206,4.1458,4.1461,0,0,0,0,0,0,4.0948,4.0961,4.1089,4.1093,4.0998,4.1052,4.106,4.1092,4.1131,4.1134,4.1094,4.1089,4.1164,4.1172,4.1181,4.1294,4.1201,4.1207,4.121,4.1455,4.1459,4.1462,0,0,0,0,0,0,4.0945,4.096,4.1086,4.1027,4.1042,4.1058,4.1094,4.1095,4.1117,4.1138,4.1141,4.1114,4.1162,4.1173,4.125,4.1296,4.1209,4.1215,4.1451,4.1456,4.146,4.152,0,0,0,0,0,0,4.094,4.0959,4.0995,4.1028,4.1045,4.1153,4.1097,4.1099,4.1128,4.1122,4.1158,4.1161,4.116,4.1241,4.1255,4.1302,4.1219,4.1447,4.1453,4.1459,4.1514,4.1526,4.1537,0,0,0,0,0,4.0934,4.1008,4.0997,4.1012,4.1091,4.1156,4.1166,4.1164,4.1131,4.1168,4.1181,4.116,4.1289,4.1249,4.1265,4.1314,4.1444,4.1451,4.1458,4.1509,4.1524,4.1537,0,0,0,0,0,0,4.098,4.1012,4.1,4.1088,4.1119,4.1149,4.1195,4.118,4.1221,4.1215,4.1211,4.1219,4.1298,4.1314,4.1269,4.1407,4.1361,4.1372,4.1394,4.1409,4.142,4.1414,4.1224,0,0,0,0,0,4.1,4.1051,4.1077,4.1151,4.1168,4.1179,4.1207,4.1203,4.1236,4.1249,4.1268,4.13,4.1348,4.1379,4.1424,4.1516,4.1523,4.1558,4.157,4.1579,4.1588,4.1638,4.1653,4.1486,4.1486,4.1486,0,0,4.1043,4.1067,4.1099,4.1161,4.1185,4.1238,4.119,4.1247,4.1286,4.1257,4.133,4.1346,4.1381,4.1466,4.1504,4.1481,4.1636,4.1588,4.1595,4.16,4.1647,4.1663,4.1677,4.1491,4.149,4.1489,0,0,4.1147,4.1171,4.1236,4.1261,4.1298,4.1305,4.1321,4.1354,4.1363,4.1436,4.1416,4.1462,4.1544,4.157,4.1594,4.171,4.1691,4.1724,4.1784,4.1833,4.1846,4.1858,4.1898,4.1913,4.1734,4.1734,4.1734,0,4.1195,4.1274,4.1271,4.133,4.1358,4.1335,4.1401,4.1425,4.1475,4.1495,4.1469,4.1573,4.1595,4.1685,4.1714,4.1734,4.1751,4.172,4.1844,4.1856,4.1867,4.1906,4.1921,4.1738,4.1737,4.1737,4.1736,0,4.1331,4.1385,4.1433,4.1483,4.1516,4.1578,4.1585,4.1619,4.1613,4.1623,4.1698,4.1724,4.1774,4.1795,4.1789,4.1885,4.187,4.1845,4.1798,4.1887,4.1923,4.1938,4.1743,4.1742,4.174,4.174,0,0,4.1466,4.1514,4.1531,4.1553,4.1593,4.1635,4.1696,4.1746,4.1775,4.1811,4.1861,4.1932,4.1909,4.1937,4.1934,4.1976,4.2066,4.1946,4.1946,4.1967,4.2173,4.2191,4.2208,4.2054,4.2057,4.2059,4.2169,0,4.1572,4.168,4.168,4.1779,4.1829,4.1808,4.1861,4.1892,4.1903,4.1947,4.1958,4.2008,4.1974,4.1991,4.2032,4.2046,4.2107,4.2038,4.2101,4.2103,4.2092,4.2227,4.2247,4.235,4.2184,4.2186,4.2188,0,4.1711,4.1752,4.1856,4.1889,4.191,4.1958,4.2003,4.2046,4.2079,4.2084,4.2116,4.2106,4.2168,4.212,4.2205,4.2159,4.2185,4.2195,4.2199,4.2204,4.215,4.2236,4.2382,4.2398,4.221,4.2209,4.2207,0,4.1799,4.1879,4.1952,4.1972,4.2012,4.2046,4.2064,4.2095,4.2125,4.2165,4.2184,4.2231,4.2256,4.2292,4.2295,4.226,4.2381,4.2334,4.2387,4.2387,4.2412,4.241,4.2565,4.243,4.243,4.243,4.2429,0,4.1918,4.1982,4.1992,4.2037,4.2108,4.2108,4.2178,4.2194,4.2221,4.2268,4.2254,4.2298,4.23,4.2346,4.2348,4.2418,4.243,4.2436,4.2435,4.2437,4.2436,4.2453,4.2445,4.2434,4.2433,4.2432,4.2431,0,4.2027,4.2036,4.2114,4.2146,4.2156,4.2207,4.2234,4.2277,4.2286,4.2346,4.236,4.2375,4.2428,4.2435,4.2497,4.2499,4.2583,4.2576,4.2572,4.257,4.2623,4.2617,4.2793,4.2815,4.2667,4.2668,4.2669,0,4.2102,4.2151,4.2189,4.2219,4.224,4.2289,4.232,4.2321,4.2354,4.2396,4.2434,4.2485,4.2526,4.2612,4.2628,4.2675,4.2668,4.2727,4.2675,4.2675,4.2669,4.2665,4.267,4.2736,4.2738,4.2739,4.274,0,4.2234,4.2237,4.2281,4.2328,4.2365,4.2402,4.2437,4.2462,4.2468,4.2506,4.256,4.2592,4.2655,4.2706,4.2753,4.2771,4.2757,4.2756,4.2771,4.2772,4.2768,4.277,4.2598,4.2752,4.2751,4.275,4.2749,4.2749,4.2328,4.2371,4.2404,4.2455,4.2481,4.2514,4.2555,4.2571,4.2616,4.2668,4.2666,4.2725,4.2758,4.2819,4.2841,4.2888,4.2868,4.289,4.2895,4.29,4.2905,4.2761,4.2896,4.2896,4.2896,4.2895,4.2895,0,4.2459,4.248,4.2526,4.2575,4.2615,4.2599,4.2636,4.267,4.2723,4.2755,4.2796,4.2858,4.2908,4.2929,4.2977,4.301,4.3005,4.3023,4.302,4.3025,4.292,4.2902,4.3027,4.3027,4.3027,4.3027,4.3027,4.3027,4.2532,4.2603,4.261,4.2694,4.2714,4.2772,4.2795,4.2825,4.2851,4.2921,4.2962,4.2976,4.3003,4.3054,4.3098,4.3103,4.3121,4.3142,4.3144,4.3045,4.3032,4.3019,4.3003,4.3147,4.3147,4.3245,4.3246,4.3247]},{"header":{"parameterUnit":"m.s-1","parameterCategory":1,"la1":30.2991,"la2":30.254,"lo1":-89.0895,"lo2":-89.0444,"dy":0.0017,"dx":0.0017,"nx":28,"ny":28,"refTime":"2024-12-11T03:00:00:Z","depth":0,"parameterNumber":3,"parameterNumberName":"V-component_of_WINDS"},"data":[0,0,0,0,0,0,0,0,0,0,0,0,0,0,0,0,0,0,0,0,0,0,0,0,0,0,0,0,0,0,0,0,0,0,0,0,0,0,0,0,0,0,0,0,0,0,0,0,0,0,0,0,0,0,0,0,0,0,-6.0993,-6.0995,0,-6.1134,-6.1136,-6.1138,-6.1132,-6.113,-6.1128,-6.1126,-6.1265,-6.127,-6.1276,0,0,0,0,0,0,0,0,0,0,0,0,0,-6.0715,-6.072,-6.0993,-6.0995,-6.0997,-6.1134,-6.1136,-6.1138,-6.1133,-6.113,-6.1128,-6.1126,-6.1263,-6.127,-6.1276,0,0,0,0,0,0,0,0,0,0,0,0,0,-6.0844,-6.0722,-6.0993,-6.1011,-6.1014,-6.1134,-6.1136,-6.1139,-6.1133,-6.113,-6.1127,-6.1124,-6.1261,-6.1269,-6.1277,-6.1387,0,0,-6.1302,-6.1306,0,0,0,0,0,0,0,0,-6.0836,-6.0854,-6.1006,-6.101,-6.1013,-6.1113,-6.1089,-6.1222,-6.1134,-6.1088,-6.1126,-6.1123,-6.1216,-6.1228,-6.1261,-6.1393,-6.1399,-6.1303,-6.1308,-6.1312,-6.1314,0,0,0,0,0,0,0,-6.0827,-6.0848,-6.1049,-6.1008,-6.1013,-6.101,-6.1025,-6.1114,-6.1166,-6.1091,-6.1091,-6.1108,-6.1218,-6.1253,-6.1264,-6.1401,-6.1303,-6.131,-6.1315,-6.1319,-6.1633,-6.1636,0,0,0,0,0,0,-6.0815,-6.084,-6.1044,-6.1053,-6.0916,-6.1018,-6.1035,-6.1084,-6.1166,-6.1175,-6.1111,-6.1108,-6.124,-6.1254,-6.1269,-6.1404,-6.1312,-6.1319,-6.1324,-6.1629,-6.1633,-6.1637,0,0,0,0,0,0,-6.0809,-6.0834,-6.1039,-6.0947,-6.0973,-6.1026,-6.1081,-6.1088,-6.1123,-6.118,-6.1189,-6.1137,-6.1238,-6.1257,-6.1359,-6.1409,-6.1323,-6.1331,-6.1625,-6.1631,-6.1635,-6.1674,0,0,0,0,0,0,-6.0801,-6.0831,-6.0874,-6.0948,-6.0978,-6.1127,-6.1084,-6.1093,-6.1138,-6.1136,-6.1208,-6.1217,-6.1238,-6.1346,-6.1367,-6.1418,-6.1337,-6.1621,-6.1628,-6.1634,-6.1669,-6.168,-6.169,0,0,0,0,0,-6.0791,-6.0878,-6.0877,-6.0901,-6.1033,-6.113,-6.1147,-6.1171,-6.1142,-6.1186,-6.1223,-6.1214,-6.14,-6.1357,-6.138,-6.1435,-6.1618,-6.1626,-6.1633,-6.1664,-6.1678,-6.169,0,0,0,0,0,0,-6.0806,-6.0888,-6.0887,-6.1001,-6.1059,-6.1129,-6.1184,-6.1185,-6.125,-6.1245,-6.127,-6.1286,-6.1388,-6.1421,-6.1372,-6.1546,-6.1505,-6.1518,-6.1521,-6.1534,-6.1545,-6.1534,-6.1344,0,0,0,0,0,-6.0824,-6.0897,-6.0964,-6.1057,-6.1087,-6.1131,-6.1174,-6.1188,-6.1248,-6.1272,-6.1316,-6.1374,-6.1445,-6.1491,-6.156,-6.1674,-6.1689,-6.1723,-6.1733,-6.1742,-6.1752,-6.1816,-6.1832,-6.1662,-6.1662,-6.1662,0,0,-6.0858,-6.0912,-6.0956,-6.1062,-6.1108,-6.1183,-6.1151,-6.1231,-6.1287,-6.1283,-6.1383,-6.1417,-6.1483,-6.1592,-6.1641,-6.1622,-6.1803,-6.1751,-6.1758,-6.1764,-6.1825,-6.1841,-6.1856,-6.1667,-6.1666,-6.1666,0,0,-6.096,-6.1008,-6.1092,-6.1141,-6.1213,-6.1242,-6.1262,-6.1334,-6.1357,-6.1458,-6.1458,-6.1523,-6.1645,-6.1693,-6.1733,-6.1856,-6.1851,-6.1877,-6.1932,-6.1994,-6.2007,-6.2019,-6.2064,-6.2079,-6.1888,-6.1888,-6.1888,0,-6.0994,-6.1108,-6.1135,-6.1217,-6.1263,-6.1267,-6.1352,-6.1396,-6.1486,-6.1518,-6.1496,-6.1651,-6.1696,-6.1816,-6.1846,-6.1878,-6.1902,-6.1869,-6.2004,-6.2016,-6.2027,-6.207,-6.2087,-6.189,-6.189,-6.189,-6.189,0,-6.1146,-6.1226,-6.1285,-6.1375,-6.1428,-6.1511,-6.1549,-6.1599,-6.1609,-6.164,-6.1743,-6.1797,-6.1878,-6.1907,-6.1916,-6.2029,-6.2015,-6.1998,-6.1958,-6.2046,-6.2086,-6.2103,-6.1895,-6.1894,-6.1893,-6.1892,0,0,-6.126,-6.1366,-6.1387,-6.1429,-6.151,-6.1572,-6.1655,-6.1736,-6.1779,-6.1841,-6.1911,-6.2016,-6.2002,-6.2047,-6.2062,-6.2116,-6.2212,-6.2093,-6.2095,-6.2113,-6.234,-6.2353,-6.2372,-6.2209,-6.2212,-6.2215,-6.2335,0,-6.1371,-6.1521,-6.1548,-6.1678,-6.1752,-6.1758,-6.183,-6.1887,-6.1919,-6.1986,-6.202,-6.2094,-6.2069,-6.2097,-6.2151,-6.2188,-6.2257,-6.218,-6.2274,-6.2277,-6.2258,-6.2393,-6.2406,-6.2517,-6.2351,-6.2354,-6.2356,0,-6.152,-6.1589,-6.1728,-6.1801,-6.1833,-6.1898,-6.1976,-6.204,-6.2104,-6.2124,-6.2177,-6.2186,-6.2271,-6.2228,-6.2346,-6.2293,-6.2333,-6.2357,-6.2362,-6.2371,-6.2322,-6.2406,-6.2553,-6.257,-6.2381,-6.2379,-6.2377,0,-6.159,-6.1718,-6.1817,-6.1853,-6.1941,-6.1987,-6.2025,-6.2087,-6.2135,-6.2203,-6.2234,-6.2309,-6.2351,-6.2408,-6.2437,-6.2403,-6.2554,-6.2512,-6.2572,-6.2572,-6.2603,-6.2601,-6.2759,-6.2629,-6.2628,-6.2628,-6.2628,0,-6.1711,-6.1795,-6.1851,-6.1912,-6.2007,-6.2037,-6.213,-6.2167,-6.2223,-6.2291,-6.23,-6.2363,-6.2398,-6.2466,-6.2489,-6.2584,-6.2602,-6.262,-6.2625,-6.2619,-6.2617,-6.2646,-6.2639,-6.2633,-6.2632,-6.2631,-6.263,0,-6.1804,-6.1845,-6.1954,-6.203,-6.2051,-6.2118,-6.2182,-6.2241,-6.2274,-6.236,-6.2382,-6.2432,-6.2513,-6.2548,-6.2647,-6.2662,-6.2772,-6.2771,-6.2751,-6.2752,-6.281,-6.2805,-6.2992,-6.3019,-6.2871,-6.2872,-6.2873,0,-6.1879,-6.1944,-6.2028,-6.2076,-6.2116,-6.2192,-6.2242,-6.2275,-6.2326,-6.2407,-6.2457,-6.2539,-6.2606,-6.2735,-6.2779,-6.2855,-6.2856,-6.2917,-6.2868,-6.2861,-6.2858,-6.2854,-6.2861,-6.2926,-6.2927,-6.2928,-6.2929,0,-6.2007,-6.2025,-6.2097,-6.2178,-6.2238,-6.2302,-6.2365,-6.2403,-6.2446,-6.2503,-6.2588,-6.264,-6.2743,-6.2824,-6.2903,-6.2941,-6.2943,-6.2945,-6.2963,-6.2958,-6.2944,-6.2953,-6.2776,-6.294,-6.2939,-6.2938,-6.2938,-6.2937,-6.2094,-6.2153,-6.2222,-6.2304,-6.2355,-6.2414,-6.2475,-6.2517,-6.2588,-6.2676,-6.2691,-6.2781,-6.2846,-6.2953,-6.2994,-6.3065,-6.3049,-6.3075,-6.3082,-6.3088,-6.3092,-6.2933,-6.3079,-6.3079,-6.3078,-6.3078,-6.3078,0,-6.2223,-6.2269,-6.2343,-6.2433,-6.2497,-6.2495,-6.2566,-6.2619,-6.2699,-6.276,-6.2828,-6.2925,-6.3005,-6.3057,-6.3137,-6.3183,-6.3186,-6.3203,-6.32,-6.3209,-6.31,-6.3077,-6.32,-6.32,-6.32,-6.32,-6.32,-6.32,-6.2298,-6.2399,-6.2425,-6.2552,-6.2597,-6.2688,-6.2728,-6.2783,-6.2832,-6.2942,-6.3009,-6.3044,-6.3101,-6.3186,-6.3259,-6.3272,-6.3301,-6.3319,-6.3332,-6.3229,-6.3216,-6.3204,-6.3183,-6.3325,-6.3326,-6.3435,-6.3436,-6.3436]}]]